This is the latest recevied weather packets stored in our database for station/object OE9SAU-10. If no packets are shown the sender has not sent any weather packets the latest 1 day(s).
| Time | Temp. | Humidity | Pressure | Rain* | Wind** | Luminosity | Snow |
|---|---|---|---|---|---|---|---|
| 1778036628 | 15.56° C | 47% | 1011.8 hPa | - | - | - | - |
| 1778035728 | 15.56° C | 47% | 1012 hPa | - | - | - | - |
| 1778034828 | 15.56° C | 48% | 1012.2 hPa | - | - | - | - |
| 1778033928 | 15.56° C | 46% | 1012.4 hPa | - | - | - | - |
| 1778033028 | 15.56° C | 46% | 1012.5 hPa | - | - | - | - |
| 1778032128 | 15.56° C | 47% | 1012.5 hPa | - | - | - | - |
| 1778031228 | 15.56° C | 46% | 1012.7 hPa | - | - | - | - |
| 1778030328 | 16.11° C | 45% | 1012.7 hPa | - | - | - | - |
| 1778029428 | 16.11° C | 45% | 1012.9 hPa | - | - | - | - |
| 1778017727 | 18.33° C | 43% | 1013.6 hPa | - | - | - | - |
| 1778016827 | 18.33° C | 43% | 1013.7 hPa | - | - | - | - |
| 1778015927 | 18.89° C | 42% | 1013.7 hPa | - | - | - | - |
| 1778015027 | 18.89° C | 42% | 1013.7 hPa | - | - | - | - |
| 1778005126 | 20° C | 44% | 1012.5 hPa | - | - | - | - |
| 1778003326 | 21.11° C | 42% | 1012 hPa | - | - | - | - |
| 1778002426 | 21.11° C | 42% | 1011.8 hPa | - | - | - | - |
| 1778001526 | 21.11° C | 42% | 1011.5 hPa | - | - | - | - |
| 1778000626 | 21.67° C | 42% | 1011.3 hPa | - | - | - | - |
| 1777999726 | 21.67° C | 41% | 1011.3 hPa | - | - | - | - |
| 1777993425 | 22.22° C | 42% | 1010.6 hPa | - | - | - | - |
* Rain since midnight (hover to see other rain measurements)
** Current wind speed in m/s (hover to see current wind gust speed)